OS101 LOWI-LOWW

Flight info

Callsign OS101
Flight time 0h 41m
Altitude 27000
Route RTT DCT NEMAL NEMAL2W
Aircraft A320/M-SDE3FGHIRWY/LB1

Departure

Time 2026-04-20 22:21
Airport Innsbruck Airport (LOWI)

Arrival

Time 2026-04-20 23:02
Airport Vienna International Airport (LOWW)
Time Latitude Longitude Altitude Speed Heading
2026-04-20 21:55 47.25827 11.35110 1904 ft 0 kts 171°
2026-04-20 22:11 47.25838 11.35108 1894 ft 4 kts 174°
2026-04-20 22:11 47.25864 11.35108 1897 ft 4 kts 194°
2026-04-20 22:11 47.25885 11.35124 1904 ft 4 kts 246°
2026-04-20 22:12 47.25888 11.35134 1894 ft 0 kts 261°
2026-04-20 22:15 47.25885 11.35105 1896 ft 4 kts 261°
2026-04-20 22:15 47.25881 11.35071 1891 ft 5 kts 261°
2026-04-20 22:15 47.25875 11.35018 1896 ft 5 kts 261°
2026-04-20 22:16 47.25869 11.34965 1901 ft 9 kts 261°
2026-04-20 22:16 47.25856 11.34846 1904 ft 14 kts 261°
2026-04-20 22:16 47.25840 11.34691 1897 ft 17 kts 261°
2026-04-20 22:16 47.25819 11.34501 1895 ft 20 kts 262°
2026-04-20 22:17 47.25795 11.34281 1899 ft 23 kts 260°
2026-04-20 22:17 47.25771 11.34075 1900 ft 14 kts 260°
2026-04-20 22:17 47.25783 11.33936 1900 ft 14 kts 296°
2026-04-20 22:17 47.25841 11.33819 1895 ft 15 kts 307°
2026-04-20 22:18 47.25902 11.33692 1900 ft 16 kts 305°
2026-04-20 22:18 47.25926 11.33538 1901 ft 17 kts 263°
2026-04-20 22:18 47.25908 11.33362 1897 ft 18 kts 261°
2026-04-20 22:18 47.25893 11.33248 1904 ft 8 kts 246°
2026-04-20 22:19 47.25858 11.33206 1900 ft 6 kts 213°
2026-04-20 22:19 47.25839 11.33165 1904 ft 4 kts 253°
2026-04-20 22:19 47.25835 11.33122 1893 ft 6 kts 263°
2026-04-20 22:19 47.25867 11.33080 1891 ft 8 kts 355°
2026-04-20 22:20 47.25883 11.33120 1904 ft 2 kts 83°
2026-04-20 22:21 47.25900 11.33308 1904 ft 55 kts 81°
2026-04-20 22:21 47.26004 11.34236 1904 ft 125 kts 81°
2026-04-20 22:21 47.26176 11.35768 1951 ft 172 kts 80°
2026-04-20 22:21 47.26385 11.37511 2609 ft 172 kts 79°
2026-04-20 22:22 47.26614 11.39235 3372 ft 171 kts 78°
2026-04-20 22:22 47.26850 11.40944 4065 ft 176 kts 78°
2026-04-20 22:22 47.27100 11.42792 4475 ft 189 kts 78°
2026-04-20 22:22 47.27371 11.44750 4889 ft 199 kts 74°
2026-04-20 22:23 47.27742 11.46666 5481 ft 189 kts 73°
2026-04-20 22:23 47.28115 11.48578 5633 ft 203 kts 73°
2026-04-20 22:23 47.28379 11.49924 5992 ft 207 kts 73°
2026-04-20 22:23 47.28770 11.51965 6665 ft 207 kts 74°
2026-04-20 22:24 47.29145 11.53994 7376 ft 204 kts 75°
2026-04-20 22:24 47.29500 11.56020 7993 ft 205 kts 75°
2026-04-20 22:24 47.29868 11.58093 8462 ft 212 kts 73°
2026-04-20 22:24 47.30277 11.60135 9206 ft 202 kts 72°
2026-04-20 22:25 47.30687 11.62214 9522 ft 218 kts 73°
2026-04-20 22:25 47.31097 11.64379 10035 ft 221 kts 68°
2026-04-20 22:25 47.31850 11.66345 10484 ft 227 kts 52°
2026-04-20 22:25 47.32803 11.68356 10670 ft 251 kts 52°
2026-04-20 22:26 47.33849 11.70562 10937 ft 274 kts 52°
2026-04-20 22:26 47.35008 11.72952 11213 ft 298 kts 51°
2026-04-20 22:26 47.36260 11.75539 11481 ft 321 kts 52°
2026-04-20 22:27 47.39007 11.81285 12135 ft 359 kts 52°
2026-04-20 22:27 47.40246 11.84530 12751 ft 368 kts 63°
2026-04-20 22:27 47.41302 11.88011 13446 ft 373 kts 63°
2026-04-20 22:27 47.42348 11.91475 14113 ft 377 kts 63°
2026-04-20 22:28 47.43425 11.95029 14770 ft 381 kts 62°
2026-04-20 22:28 47.44538 11.98592 15425 ft 384 kts 62°
2026-04-20 22:28 47.45694 12.02186 16065 ft 387 kts 61°
2026-04-20 22:28 47.46865 12.05788 16690 ft 390 kts 60°
2026-04-20 22:29 47.48047 12.09427 17279 ft 394 kts 60°
2026-04-20 22:29 47.49234 12.13094 17878 ft 397 kts 61°
2026-04-20 22:29 47.50423 12.16788 18429 ft 400 kts 61°
2026-04-20 22:29 47.51618 12.20529 18946 ft 404 kts 60°
2026-04-20 22:30 47.52828 12.24319 19445 ft 409 kts 60°
2026-04-20 22:30 47.54045 12.28149 19950 ft 413 kts 60°
2026-04-20 22:30 47.55271 12.32021 20423 ft 418 kts 60°
2026-04-20 22:30 47.56509 12.35936 20916 ft 422 kts 60°
2026-04-20 22:31 47.57762 12.39896 21397 ft 427 kts 60°
2026-04-20 22:31 47.59028 12.43894 21857 ft 432 kts 60°
2026-04-20 22:31 47.60310 12.47948 22279 ft 436 kts 60°
2026-04-20 22:31 47.61601 12.52044 22747 ft 440 kts 60°
2026-04-20 22:32 47.62886 12.56128 23146 ft 444 kts 60°
2026-04-20 22:32 47.64197 12.60296 23553 ft 448 kts 60°
2026-04-20 22:32 47.65518 12.64503 23930 ft 452 kts 60°
2026-04-20 22:32 47.66849 12.68749 24314 ft 456 kts 60°
2026-04-20 22:33 47.68188 12.73032 24688 ft 459 kts 60°
2026-04-20 22:33 47.69536 12.77351 24995 ft 464 kts 60°
2026-04-20 22:33 47.70894 12.81712 25366 ft 467 kts 60°
2026-04-20 22:33 47.72259 12.86098 25735 ft 469 kts 60°
2026-04-20 22:34 47.73633 12.90525 26067 ft 473 kts 60°
2026-04-20 22:34 47.75014 12.94981 26390 ft 476 kts 60°
2026-04-20 22:34 47.76404 12.99463 26720 ft 478 kts 60°
2026-04-20 22:34 47.77796 13.03965 27014 ft 482 kts 60°
2026-04-20 22:35 47.79192 13.08504 27088 ft 480 kts 60°
2026-04-20 22:35 47.80570 13.13000 27109 ft 476 kts 60°
2026-04-20 22:35 47.81945 13.17475 27116 ft 475 kts 60°
2026-04-20 22:35 47.83301 13.21888 27109 ft 475 kts 60°
2026-04-20 22:36 47.84675 13.26365 27103 ft 475 kts 60°
2026-04-20 22:36 47.86040 13.30830 27105 ft 475 kts 60°
2026-04-20 22:36 47.87407 13.35319 27117 ft 475 kts 60°
2026-04-20 22:36 47.88767 13.39793 27101 ft 475 kts 60°
2026-04-20 22:37 47.90114 13.44298 27099 ft 477 kts 63°
2026-04-20 22:37 47.91135 13.49029 27108 ft 482 kts 73°
2026-04-20 22:37 47.91684 13.53965 27109 ft 486 kts 82°
2026-04-20 22:37 47.91769 13.59012 27100 ft 488 kts 88°
2026-04-20 22:38 47.91742 13.64071 27101 ft 487 kts 88°
2026-04-20 22:38 47.91720 13.69122 27099 ft 488 kts 88°
2026-04-20 22:38 47.91698 13.74174 27093 ft 487 kts 88°
2026-04-20 22:38 47.91673 13.79230 27096 ft 487 kts 88°
2026-04-20 22:39 47.91644 13.84281 27099 ft 487 kts 88°
2026-04-20 22:39 47.91614 13.89265 27098 ft 487 kts 88°
2026-04-20 22:39 47.91583 13.94306 27097 ft 487 kts 88°
2026-04-20 22:39 47.91549 13.99356 27091 ft 487 kts 88°
2026-04-20 22:40 47.91510 14.04407 27096 ft 487 kts 89°
2026-04-20 22:40 47.91469 14.09461 27094 ft 487 kts 88°
2026-04-20 22:40 47.91425 14.14532 27090 ft 487 kts 89°
2026-04-20 22:40 47.91377 14.19580 27089 ft 487 kts 89°
2026-04-20 22:41 47.91323 14.24635 27096 ft 487 kts 89°
2026-04-20 22:41 47.91268 14.29679 27091 ft 488 kts 89°
2026-04-20 22:41 47.91213 14.34732 27091 ft 488 kts 89°
2026-04-20 22:41 47.91155 14.39788 27098 ft 488 kts 89°
2026-04-20 22:42 47.91096 14.44845 27091 ft 488 kts 89°
2026-04-20 22:42 47.91037 14.49904 26508 ft 489 kts 89°
2026-04-20 22:42 47.90977 14.54958 25906 ft 486 kts 89°
2026-04-20 22:42 47.90916 14.59956 25318 ft 481 kts 89°
2026-04-20 22:43 47.90854 14.64870 24749 ft 477 kts 90°
2026-04-20 22:43 47.90789 14.69784 24193 ft 472 kts 90°
2026-04-20 22:43 47.90719 14.74644 23651 ft 466 kts 90°
2026-04-20 22:43 47.90645 14.79508 23124 ft 461 kts 90°
2026-04-20 22:44 47.90572 14.84259 22626 ft 456 kts 90°
2026-04-20 22:44 47.90503 14.88899 22137 ft 451 kts 90°
2026-04-20 22:44 47.90433 14.93543 21670 ft 446 kts 90°
2026-04-20 22:44 47.90360 14.98152 21207 ft 442 kts 90°
2026-04-20 22:45 47.90284 15.02704 20739 ft 437 kts 90°
2026-04-20 22:45 47.90206 15.07209 20264 ft 433 kts 90°
2026-04-20 22:45 47.90129 15.11676 19786 ft 429 kts 90°
2026-04-20 22:45 47.90051 15.16101 19296 ft 426 kts 91°
2026-04-20 22:46 47.89972 15.20495 18811 ft 422 kts 91°
2026-04-20 22:46 47.89893 15.24845 18312 ft 418 kts 91°
2026-04-20 22:46 47.89809 15.29166 17819 ft 415 kts 91°
2026-04-20 22:46 47.89726 15.33450 17314 ft 412 kts 91°
2026-04-20 22:47 47.89642 15.37698 16827 ft 409 kts 91°
2026-04-20 22:47 47.89559 15.41871 16386 ft 405 kts 91°
2026-04-20 22:47 47.89472 15.46099 15900 ft 402 kts 92°
2026-04-20 22:47 47.89095 15.50189 15453 ft 398 kts 103°
2026-04-20 22:48 47.88434 15.54167 15002 ft 394 kts 104°
2026-04-20 22:48 47.87774 15.58107 14547 ft 387 kts 103°
2026-04-20 22:48 47.87136 15.61919 14118 ft 376 kts 103°
2026-04-20 22:48 47.86512 15.65670 13695 ft 371 kts 103°
2026-04-20 22:49 47.85900 15.69353 13434 ft 370 kts 103°
2026-04-20 22:49 47.85283 15.73058 13188 ft 371 kts 103°
2026-04-20 22:49 47.84657 15.76777 12935 ft 369 kts 103°
2026-04-20 22:49 47.84033 15.80454 12574 ft 364 kts 103°
2026-04-20 22:50 47.83411 15.84098 12058 ft 363 kts 103°
2026-04-20 22:50 47.82792 15.87741 11538 ft 363 kts 103°
2026-04-20 22:50 47.82172 15.91384 11002 ft 363 kts 103°
2026-04-20 22:50 47.81554 15.95012 10532 ft 358 kts 103°
2026-04-20 22:51 47.80962 15.98479 10395 ft 332 kts 103°
2026-04-20 22:51 47.80405 16.01709 10061 ft 316 kts 103°
2026-04-20 22:51 47.79866 16.04840 9663 ft 309 kts 103°
2026-04-20 22:51 47.79336 16.07932 9541 ft 308 kts 103°
2026-04-20 22:52 47.78806 16.11020 9413 ft 307 kts 103°
2026-04-20 22:52 47.78287 16.14047 9166 ft 306 kts 103°
2026-04-20 22:52 47.77761 16.17104 8778 ft 304 kts 103°
2026-04-20 22:52 47.77290 16.20153 8381 ft 302 kts 95°
2026-04-20 22:53 47.77283 16.23230 7994 ft 296 kts 79°
2026-04-20 22:53 47.77802 16.26143 7634 ft 289 kts 64°
2026-04-20 22:53 47.78727 16.28753 7284 ft 283 kts 57°
2026-04-20 22:53 47.79704 16.31293 6931 ft 280 kts 57°
2026-04-20 22:54 47.80660 16.33805 6584 ft 278 kts 57°
2026-04-20 22:54 47.81604 16.36292 6247 ft 275 kts 57°
2026-04-20 22:54 47.82541 16.38766 5909 ft 272 kts 58°
2026-04-20 22:54 47.83465 16.41204 5572 ft 268 kts 57°
2026-04-20 22:55 47.84374 16.43603 5245 ft 263 kts 58°
2026-04-20 22:55 47.85250 16.45925 4924 ft 249 kts 58°
2026-04-20 22:55 47.86073 16.48108 4612 ft 235 kts 57°
2026-04-20 22:55 47.86855 16.50182 4339 ft 227 kts 57°
2026-04-20 22:56 47.87622 16.52206 4235 ft 226 kts 57°
2026-04-20 22:56 47.88394 16.54237 4141 ft 224 kts 57°
2026-04-20 22:56 47.89142 16.56214 4040 ft 214 kts 57°
2026-04-20 22:56 47.89854 16.58108 3946 ft 205 kts 57°
2026-04-20 22:57 47.90544 16.59938 3854 ft 201 kts 57°
2026-04-20 22:57 47.91229 16.61750 3772 ft 200 kts 57°
2026-04-20 22:57 47.92032 16.63346 3751 ft 184 kts 39°
2026-04-20 22:57 47.93037 16.64372 3624 ft 169 kts 21°
2026-04-20 22:58 47.94122 16.64854 3479 ft 158 kts
2026-04-20 22:58 47.95164 16.64851 3354 ft 143 kts 351°
2026-04-20 22:58 47.96110 16.64503 3171 ft 138 kts 343°
2026-04-20 22:58 47.97014 16.64124 2991 ft 136 kts 343°
2026-04-20 22:59 47.97932 16.63740 2816 ft 135 kts 344°
2026-04-20 22:59 47.98823 16.63365 2638 ft 134 kts 343°
2026-04-20 22:59 47.99718 16.62989 2463 ft 134 kts 344°
2026-04-20 22:59 48.00612 16.62612 2284 ft 133 kts 344°
2026-04-20 23:00 48.01509 16.62234 2107 ft 134 kts 344°
2026-04-20 23:00 48.02403 16.61858 1929 ft 134 kts 344°
2026-04-20 23:00 48.03299 16.61481 1747 ft 134 kts 344°
2026-04-20 23:00 48.04198 16.61102 1572 ft 134 kts 344°
2026-04-20 23:01 48.05097 16.60723 1399 ft 134 kts 344°
2026-04-20 23:01 48.05993 16.60346 1187 ft 134 kts 344°
2026-04-20 23:01 48.06888 16.59975 997 ft 133 kts 344°
2026-04-20 23:01 48.07782 16.59599 844 ft 133 kts 344°
2026-04-20 23:02 48.08674 16.59212 694 ft 134 kts 343°
2026-04-20 23:02 48.09539 16.58834 618 ft 116 kts 344°
2026-04-20 23:02 48.10155 16.58583 611 ft 67 kts 345°
2026-04-20 23:02 48.10437 16.58467 621 ft 21 kts 344°
2026-04-20 23:03 48.10613 16.58393 623 ft 29 kts 344°
2026-04-20 23:03 48.10807 16.58314 609 ft 28 kts 345°
2026-04-20 23:03 48.10945 16.58256 616 ft 19 kts 341°
2026-04-20 23:03 48.11020 16.58127 614 ft 16 kts 303°
2026-04-20 23:04 48.11079 16.57974 620 ft 18 kts 298°
2026-04-20 23:04 48.11138 16.57807 611 ft 19 kts 292°
2026-04-20 23:04 48.11178 16.57650 620 ft 15 kts 294°
2026-04-20 23:04 48.11221 16.57503 619 ft 16 kts 296°
2026-04-20 23:05 48.11275 16.57345 613 ft 18 kts 292°
2026-04-20 23:05 48.11330 16.57168 620 ft 20 kts 298°
2026-04-20 23:05 48.11373 16.57044 620 ft 13 kts 298°
2026-04-20 23:05 48.11417 16.56920 616 ft 14 kts 297°
2026-04-20 23:06 48.11462 16.56783 621 ft 16 kts 295°
2026-04-20 23:06 48.11513 16.56623 617 ft 18 kts 295°
2026-04-20 23:06 48.11568 16.56450 618 ft 20 kts 295°
2026-04-20 23:06 48.11630 16.56270 616 ft 17 kts 314°
2026-04-20 23:07 48.11718 16.56214 623 ft 14 kts 343°
2026-04-20 23:07 48.11785 16.56187 615 ft 4 kts 342°
2026-04-20 23:07 48.11793 16.56183 613 ft 0 kts 342°